TimeEST,TemperatureF,Dew PointF,Humidity,Sea Level PressureIn,VisibilityMPH,Wind Direction,Wind SpeedMPH,Gust SpeedMPH,PrecipitationIn,Events,Conditions,WindDirDegrees,DateUTC
12:54 AM,10.0,-0.9,61,30.38,10.0,West,8.1,-,N/A,,Clear,280,2014-01-24 05:54:00
1:54 AM,12.0,-0.0,59,30.38,10.0,WNW,10.4,-,N/A,,Clear,300,2014-01-24 06:54:00
2:54 AM,12.0,-0.0,59,30.39,10.0,WNW,8.1,-,N/A,,Clear,300,2014-01-24 07:54:00
3:54 AM,10.9,-0.9,59,30.39,10.0,WNW,9.2,-,N/A,,Clear,290,2014-01-24 08:54:00
4:54 AM,7.0,-2.0,67,30.41,10.0,West,6.9,-,N/A,,Clear,270,2014-01-24 09:54:00
5:54 AM,9.0,-0.9,64,30.43,10.0,WNW,11.5,-,N/A,,Clear,290,2014-01-24 10:54:00
6:54 AM,9.0,-0.9,64,30.45,10.0,WNW,10.4,-,N/A,,Clear,290,2014-01-24 11:54:00
7:54 AM,9.0,-0.9,64,30.47,10.0,WNW,11.5,-,N/A,,Clear,290,2014-01-24 12:54:00
8:54 AM,12.0,-0.9,56,30.48,10.0,WNW,12.7,20.7,N/A,,Clear,300,2014-01-24 13:54:00
9:54 AM,14.0,-0.9,52,30.49,10.0,WNW,20.7,28.8,N/A,,Clear,300,2014-01-24 14:54:00
10:54 AM,15.1,-0.9,49,30.48,10.0,WNW,13.8,20.7,N/A,,Clear,300,2014-01-24 15:54:00
11:54 AM,17.1,-2.0,43,30.45,10.0,NW,12.7,-,N/A,,Clear,310,2014-01-24 16:54:00
12:54 PM,17.1,-0.0,47,30.40,10.0,NW,12.7,-,N/A,,Clear,310,2014-01-24 17:54:00
1:54 PM,19.0,-0.9,42,30.37,10.0,NW,13.8,19.6,N/A,,Clear,310,2014-01-24 18:54:00
2:54 PM,18.0,1.0,48,30.35,10.0,West,15.0,-,N/A,,Clear,270,2014-01-24 19:54:00
3:54 PM,18.0,-0.0,45,30.34,10.0,West,12.7,-,N/A,,Clear,270,2014-01-24 20:54:00
4:54 PM,15.1,-0.0,51,30.33,10.0,West,8.1,-,N/A,,Clear,260,2014-01-24 21:54:00
5:54 PM,15.1,-0.9,49,30.32,10.0,Calm,Calm,-,N/A,,Clear,0,2014-01-24 22:54:00
6:54 PM,12.9,-0.0,56,30.31,10.0,SSW,3.5,-,N/A,,Clear,200,2014-01-24 23:54:00
7:54 PM,15.1,-0.0,51,30.27,10.0,Calm,Calm,-,N/A,,Clear,0,2014-01-25 00:54:00
8:54 PM,17.1,1.9,52,30.26,10.0,SW,4.6,-,N/A,,Clear,230,2014-01-25 01:54:00
9:54 PM,19.0,3.0,50,30.21,10.0,SSW,4.6,-,N/A,,Clear,200,2014-01-25 02:54:00
10:54 PM,19.0,3.9,52,30.19,10.0,SW,8.1,-,N/A,,Clear,220,2014-01-25 03:54:00
11:54 PM,19.9,5.0,52,30.15,10.0,Variable,5.8,-,N/A,,Clear,0,2014-01-25 04:54:00